Change the Weather History Date:

Monday, October 10, 2011

  Actual Average Record
Temperature  
Mean Temperature 63 °F -  
Max Temperature 73 °F 65 °F 87 °F (1980)
Min Temperature 52 °F 39 °F 21 °F (2000)
Degree Days  
Heating Degree Days 2    
Growing Degree Days 13 (Base 50)    
Moisture  
Dew Point 54 °F    
Average Humidity 74    
Maximum Humidity 93    
Minimum Humidity 38    
Precipitation  
Precipitation 0.04 in - - ()
Sea Level Pressure  
Sea Level Pressure 29.99 in    
Wind  
Wind Speed 7 mph (South)    
Max Wind Speed 13 mph    
Max Gust Speed 17 mph    
Visibility 9 miles    
Events Rain    
Averages and records for this station are not official NWS values.
T = Trace of Precipitation, MM = Missing Value Source: NWS Daily Summary

Daily Weather History Graph

Daily Weather History Graph

Search for Another Location

Airport or City:

Trip Planner

Search our weather history database for the weather conditions in past years. The results will help you decide how hot, cold, wet, or windy it might be!

Date:

Astronomy

Oct. 10, 2011 Rise Set
Actual Time 7:31 AM CDT 6:51 PM CDT
Civil Twilight 7:03 AM CDT 7:19 PM CDT
Nautical Twilight 6:30 AM CDT 7:51 PM CDT
Astronomical Twilight 5:58 AM CDT 8:23 PM CDT
Moon 5:55 PM CDT (10/10) 6:13 AM CDT (10/10)
Length of Visible Light 12h 16m
Length of Day
11h 20m
Waxing Gibbous, 98% of the Moon is Illuminated
Oct 10
Waxing Gibbous
Oct 11
Full
Oct 19
Last Quarter
Oct 26
New
Nov 2
First Quarter

Hourly Weather History & Observations

Time (CDT) Temp. Dew Point Humidity Pressure Visibility Wind Dir Wind Speed Gust Speed Precip Events Conditions
2:54 AM 63.0 °F 57.0 °F 81% 30.01 in 10.0 mi South 3.5 mph - N/A   Overcast
3:54 AM 61.0 °F 57.0 °F 87% 30.00 in 10.0 mi South 4.6 mph - 0.00 in   Overcast
5:54 AM 60.1 °F 57.0 °F 90% 29.99 in 10.0 mi South 4.6 mph - 0.00 in Rain Light Rain
6:54 AM 59.0 °F 57.0 °F 93% 30.00 in 8.0 mi SSW 4.6 mph - 0.02 in Rain Light Rain
8:46 AM 60.8 °F 57.2 °F 88% 30.03 in 5.0 mi South 4.6 mph - 0.00 in   Overcast
8:54 AM 60.1 °F 57.9 °F 93% 30.01 in 6.0 mi South 3.5 mph - 0.00 in   Overcast
9:54 AM 61.0 °F 57.9 °F 90% 30.01 in 10.0 mi South 9.2 mph - 0.01 in   Overcast
10:09 AM 62.6 °F 57.2 °F 82% 30.04 in 10.0 mi South 9.2 mph - N/A   Overcast
10:23 AM 60.8 °F 57.2 °F 88% 30.04 in 2.0 mi SW 9.2 mph 17.3 mph 0.01 in Rain Rain
10:30 AM 60.8 °F 57.2 °F 88% 30.04 in 3.0 mi SSW 9.2 mph - 0.01 in Rain Light Rain
10:54 AM 61.0 °F 57.0 °F 87% 30.01 in 10.0 mi SSW 6.9 mph - 0.01 in   Overcast
11:16 AM 64.4 °F 57.2 °F 77% 30.03 in 10.0 mi SSW 8.1 mph - N/A   Mostly Cloudy
11:35 AM 64.4 °F 57.2 °F 77% 30.03 in 10.0 mi SSW 10.4 mph - N/A   Scattered Clouds
11:49 AM 66.2 °F 55.4 °F 68% 30.02 in 10.0 mi South 12.7 mph - N/A   Mostly Cloudy
11:54 AM 66.0 °F 57.0 °F 73% 30.00 in 10.0 mi SSW 10.4 mph - N/A   Mostly Cloudy
12:35 PM 68.0 °F 55.4 °F 64% 30.01 in 10.0 mi South 12.7 mph - N/A   Partly Cloudy
12:54 PM 68.0 °F 55.0 °F 63% 29.98 in 10.0 mi SSW 8.1 mph - N/A   Scattered Clouds
1:54 PM 71.1 °F 51.1 °F 49% 29.96 in 10.0 mi SSW 9.2 mph 16.1 mph N/A   Partly Cloudy
3:54 PM 73.0 °F 46.9 °F 39% 29.92 in 10.0 mi South 8.1 mph 16.1 mph N/A   Clear
4:54 PM 73.0 °F 46.0 °F 38% 29.90 in 10.0 mi South 10.4 mph - N/A   Clear
5:54 PM 71.1 °F 46.0 °F 41% 29.90 in 10.0 mi South 10.4 mph - N/A   Clear
7:54 PM 57.0 °F 46.9 °F 69% 29.92 in 10.0 mi SSE 5.8 mph - N/A   Clear
8:54 PM 54.0 °F 46.9 °F 77% 29.92 in 10.0 mi SSE 8.1 mph - N/A   Clear
9:54 PM 53.1 °F 46.0 °F 77% 29.93 in 10.0 mi South 5.8 mph - N/A   Clear
10:54 PM 52.0 °F 46.0 °F 80% 29.94 in 10.0 mi South 4.6 mph - N/A   Clear